ボク彗星

C/2022 J2 ( Bok )

English version
Home page
Updated on November 13, 2022

---------------------------------------------------------------------

・ プロフィール

発見日 2022年5月9日
発見光度 21.5等
発見者 Bok survey, Kitt Peak

・ 軌道要素

Epoch 2022 Aug. 9.0 TT = JDT 2459800.5
T 2022 Oct. 27.05998 TT                                 Rudenko
q   1.8276590            (2000.0)            P               Q
z  +0.0108026      Peri.  133.06145     -0.39339988     +0.77788547
 +/-0.0000080      Node   252.55840     +0.62075072     +0.61791379
e   0.9802566      Incl.  149.09292     +0.67816302     -0.11435359
>From 58 observations 2022 May 9-Nov. 7, mean residual 0".4.

・ 光度変化

        H = 17.0  G = 0.15

---------------------------------------------------------------------

軌道要素はM.P.E.C. 2022-V125に掲載されたものです。
光度グラフはComet for Windowsで作成したものです。

---------------------------------------------------------------------

Copyright(C) Seiichi Yoshida (comet@aerith.net). All rights reserved.